GW4499 Weather Reports


Display with metric or nautical units.
time (UTC)temp
F
wind
direction
speed
MPH
gust
MPH
rain 1hr
in
rain 24hr
in
rain mn
in
humidity
%
barometer
mb
20260904070059 68 0.0 0.0 0.00 0.00 0.00 53 1016.1
20260904065019 69 0.0 0.0 0.00 0.00 0.00 51 1015.9
20260904064019 69 0.0 0.0 0.00 0.00 0.00 53 1015.3
20260904063019 69 0.0 0.0 0.00 0.00 0.00 51 1015.4
20260904062019 70 0.0 0.0 0.00 0.00 0.00 51 1015.4
20260904061019 70 0.0 2.0 0.00 0.00 0.00 48 1014.8
20260904060019 71 0.0 0.0 0.00 0.00 0.00 46 1015.2
20260904055039 72 0.0 0.0 0.00 0.00 0.00 44 1015.2
20260904054039 73 0.0 1.0 0.00 0.00 0.00 42 1015.2
20260904053019 73 0.0 0.0 0.00 0.00 0.00 41 1015.2
20260904052019 73 0.0 3.0 0.00 0.00 0.00 41 1015.1
20260904051039 72 338 1.0 5.0 0.00 0.00 0.00 42 1014.6
20260904050039 72 0.0 1.0 0.00 0.00 0.00 46 1014.6
20260904045019 72 0.0 1.0 0.00 0.00 0.00 43 1014.9
20260904044019 72 0.0 1.0 0.00 0.00 0.00 41 1014.9
20260904043019 72 0.0 0.0 0.00 0.00 0.00 41 1015.0
20260904042019 72 0.0 1.0 0.00 0.00 0.00 43 1015.1
20260904041019 71 338 1.0 2.0 0.00 0.00 0.00 43 1014.5
20260904040019 71 0.0 0.0 0.00 0.00 0.00 47 1014.6
20260904035019 72 0.0 0.0 0.00 0.00 0.00 46 1014.8
20260904034039 72 0.0 1.0 0.00 0.00 0.00 45 1014.2
20260904033019 73 0.0 0.0 0.00 0.00 0.00 43 1014.3
20260904032019 73 0.0 1.0 0.00 0.00 0.00 44 1014.2
20260904031019 73 0.0 0.0 0.00 0.00 0.00 44 1013.3
20260904030019 74 0.0 0.0 0.00 0.00 0.00 44 1013.2
20260904025039 74 0.0 0.0 0.00 0.00 0.00 43 1013.2
20260904024019 75 0.0 0.0 0.00 0.00 0.00 42 1012.4
20260904023019 76 0.0 0.0 0.00 0.00 0.00 39 1012.6
20260904022019 77 0.0 0.0 0.00 0.00 0.00 37 1012.5
20260904021019 78 0.0 0.0 0.00 0.00 0.00 36 1012.1
20260904020019 79 0.0 0.0 0.00 0.00 0.00 32 1012.2
20260904015039 80 0.0 0.0 0.00 0.00 0.00 32 1012.3
20260904014019 81 0.0 0.0 0.00 0.00 0.00 31 1011.8
20260904013039 81 0.0 0.0 0.00 0.00 0.00 30 1011.8
20260904012039 82 0.0 1.0 0.00 0.00 0.00 28 1012.1
20260904011019 82 0.0 1.0 0.00 0.00 0.00 28 1011.7
20260904010019 83 0.0 1.0 0.00 0.00 0.00 27 1012.0
20260904005019 84 0.0 1.0 0.00 0.00 0.00 26 1012.0
20260904004039 84 0.0 1.0 0.00 0.00 0.00 25 1011.9
20260904003019 85 0.0 1.0 0.00 0.00 0.00 25 1011.9
20260904002039 85 0.0 2.0 0.00 0.00 0.00 24 1012.0
20260904001019 85 0.0 2.0 0.00 0.00 0.00 25 1012.1
20260904000039 86 0.0 1.0 0.00 0.00 0.00 24 1012.1
20260903235019 86 0.0 2.0 0.00 0.00 0.00 24 1012.5
20260903234019 86 0.0 1.0 0.00 0.00 0.00 24 1012.6
20260903233019 87 158 1.0 4.0 0.00 0.00 0.00 24 1012.7
20260903232039 87 0.0 1.0 0.00 0.01 0.00 23 1012.6
20260903231039 87 0.0 3.0 0.00 0.01 0.00 21 1013.0
20260903230019 87 0.0 1.0 0.00 0.01 0.00 21 1013.0
20260903225019 87 0.0 2.0 0.00 0.01 0.00 23 1013.2
20260903224018 87 180 2.0 6.0 0.00 0.01 0.00 20 1013.2
20260903223018 88 158 2.0 7.0 0.00 0.01 0.00 21 1013.1
20260903222019 88 158 1.0 4.0 0.00 0.01 0.00 21 1013.2
20260903221020 88 135 1.0 4.0 0.00 0.01 0.00 21 1013.3
20260903220021 89 135 3.0 8.0 0.00 0.01 0.00 20 1013.2
20260903215020 89 135 1.0 5.0 0.00 0.01 0.00 22 1013.6
20260903214020 89 113 1.0 6.0 0.00 0.01 0.00 21 1013.6
20260903213020 89 158 1.0 3.0 0.00 0.01 0.00 24 1013.9
20260903212021 89 158 2.0 7.0 0.00 0.01 0.00 22 1013.8
20260903211020 89 180 1.0 4.0 0.00 0.01 0.00 22 1014.3
20260903210041 89 158 1.0 5.0 0.00 0.01 0.00 23 1014.3
20260903205020 90 158 1.0 6.0 0.00 0.01 0.00 21 1014.4
20260903204022 89 203 2.0 7.0 0.00 0.01 0.00 22 1014.5
20260903203100 90 135 2.0 7.0 0.00 0.01 0.00 21 1014.9
20260903202021 91 158 3.0 7.0 0.00 0.01 0.00 21 1014.9
20260903201020 91 135 2.0 10.0 0.00 0.01 0.00 18 1015.1
20260903200020 92 203 1.0 4.0 0.00 0.01 0.00 17 1015.1
20260903195020 92 0.0 3.0 0.00 0.01 0.00 16 1015.2
20260903194101 93 293 1.0 3.0 0.00 0.01 0.00 16 1015.9
20260903193020 93 293 1.0 2.0 0.00 0.01 0.00 15 1015.8
20260903192040 93 0.0 2.0 0.00 0.01 0.00 17 1016.1
20260903191020 91 135 1.0 4.0 0.00 0.01 0.00 19 1016.0
20260903190020 91 135 1.0 3.0 0.00 0.01 0.00 18 1016.1
20260903185020 92 135 1.0 3.0 0.00 0.01 0.00 19 1016.8
20260903184020 92 0.0 1.0 0.00 0.01 0.00 20 1016.6
20260903183020 90 0.0 2.0 0.00 0.01 0.00 23 1016.8
20260903182020 88 338 1.0 4.0 0.00 0.01 0.00 22 1016.7
20260903181020 87 135 1.0 4.0 0.00 0.01 0.00 24 1016.8
20260903180020 85 158 2.0 6.0 0.00 0.01 0.00 27 1016.6
20260903175040 84 158 2.0 5.0 0.00 0.01 0.00 28 1016.3
20260903174020 83 315 3.0 11.0 0.00 0.01 0.00 34 1016.8
20260903173020 82 0.0 1.0 0.00 0.01 0.00 36 1016.5
20260903172020 82 0.0 2.0 0.00 0.01 0.00 35 1016.7
20260903171022 81 0.0 1.0 0.00 0.01 0.00 37 1016.2
20260903170020 80 0.0 1.0 0.00 0.01 0.00 42 1016.1
20260903165020 78 113 1.0 3.0 0.00 0.01 0.00 42 1016.0
20260903164020 78 135 2.0 3.0 0.00 0.01 0.00 45 1016.0
20260903163020 77 203 1.0 4.0 0.00 0.01 0.00 46 1016.1
20260903162040 77 113 2.0 4.0 0.00 0.01 0.00 46 1016.1
20260903161040 78 0.0 1.0 0.00 0.01 0.00 48 1016.4
20260903160020 78 0.0 1.0 0.00 0.01 0.00 48 1016.4
20260903155020 77 0.0 1.0 0.00 0.01 0.00 47 1016.3
20260903154020 77 158 1.0 3.0 0.00 0.01 0.00 48 1016.5
20260903153040 76 0.0 2.0 0.00 0.01 0.00 53 1016.6
20260903152020 75 0.0 2.0 0.00 0.01 0.00 54 1016.6
20260903151020 73 0.0 2.0 0.00 0.01 0.00 59 1016.2
20260903150100 71 180 1.0 3.0 0.00 0.01 0.00 59 1015.8
20260903145020 69 0.0 2.0 0.00 0.01 0.00 64 1015.8
20260903144020 67 0.0 0.0 0.00 0.01 0.00 69 1015.2
20260903143020 64 338 1.0 2.0 0.00 0.01 0.00 70 1014.9
20260903142020 63 0.0 1.0 0.00 0.01 0.00 75 1014.4
20260903141020 62 315 1.0 2.0 0.00 0.01 0.00 75 1014.7
20260903140020 60 0.0 0.0 0.00 0.01 0.00 81 1014.5
20260903135020 60 0.0 0.0 0.00 0.01 0.00 82 1014.5
20260903134040 59 0.0 0.0 0.00 0.01 0.00 83 1014.6
20260903133040 58 0.0 0.0 0.00 0.01 0.00 85 1014.3
20260903132020 57 315 1.0 2.0 0.00 0.01 0.00 90 1014.0
20260903131020 56 0.0 0.0 0.00 0.01 0.00 90 1013.8
20260903130020 56 0.0 0.0 0.00 0.01 0.00 90 1013.7
20260903125020 55 0.0 1.0 0.00 0.01 0.00 91 1013.6
20260903124020 55 0.0 0.0 0.00 0.01 0.00 91 1013.4
20260903123020 55 0.0 1.0 0.00 0.01 0.00 91 1013.1
20260903122020 55 0.0 0.0 0.00 0.01 0.00 91 1013.1
20260903121020 55 0.0 0.0 0.00 0.01 0.00 91 1012.8
20260903120020 55 0.0 0.0 0.00 0.01 0.00 91 1012.9
20260903115021 56 0.0 0.0 0.00 0.01 0.00 91 1012.7
20260903114040 56 0.0 0.0 0.00 0.01 0.00 91 1015.0
20260903113040 56 0.0 0.0 0.00 0.01 0.00 91 1015.1
20260903112020 56 0.0 0.0 0.00 0.01 0.00 91 1014.9
20260903111040 57 0.0 1.0 0.00 0.01 0.00 93 1014.8
20260903110020 56 0.0 0.0 0.00 0.01 0.00 92 1015.0
20260903105040 57 0.0 1.0 0.00 0.01 0.00 92 1014.9
20260903104020 57 0.0 0.0 0.00 0.01 0.00 92 1015.2
20260903103019 57 0.0 0.0 0.00 0.01 0.00 91 1015.1
20260903102019 57 0.0 0.0 0.00 0.01 0.00 90 1015.2
20260903101020 57 0.0 0.0 0.00 0.01 0.00 90 1015.7
20260903100019 57 0.0 0.0 0.00 0.01 0.00 89 1015.7
20260903095019 57 0.0 0.0 0.00 0.01 0.00 89 1015.8
20260903094019 57 0.0 0.0 0.00 0.01 0.00 88 1016.2
20260903093019 58 0.0 0.0 0.00 0.01 0.00 88 1016.3
20260903092040 58 0.0 0.0 0.00 0.01 0.00 88 1016.1
20260903091019 58 0.0 0.0 0.00 0.01 0.00 86 1016.1
20260903090019 58 0.0 0.0 0.00 0.01 0.00 86 1016.3
20260903085019 58 0.0 0.0 0.00 0.01 0.00 85 1016.2
20260903084019 59 0.0 0.0 0.00 0.01 0.00 85 1016.2
20260903083040 59 0.0 0.0 0.00 0.01 0.00 84 1016.1
20260903082019 59 0.0 0.0 0.00 0.01 0.00 83 1016.0
20260903081019 60 0.0 0.0 0.00 0.01 0.00 82 1016.4
20260903080019 60 0.0 0.0 0.00 0.01 0.00 82 1016.2
20260903075019 60 0.0 0.0 0.00 0.01 0.00 81 1016.2
20260903074019 61 0.0 0.0 0.00 0.01 0.00 80 1016.4
20260903073019 62 0.0 0.0 0.00 0.01 0.00 78 1016.4
20260903072039 62 0.0 0.0 0.00 0.01 0.00 76 1016.5
20260903071039 63 0.0 0.0 0.00 0.01 0.00 75 1016.5